Regional Weather Roundup
Issued by NWS

Home | Current Version | Previous Version | Graphics & Text | Print | Product List | Glossary Off
Versions: 1 2 3 4 5 6 7 8 9 10 11 12 13 14 15 16 17 18 19 20 21 22 23 24 25 26 27 28 29 30 31 32 33 34 35 36 37 38 39 40 41 42 43 44 45 46 47 48 49 50

000
ASUS43 KDMX 280707
RWRIA

WEATHER ROUNDUP FOR IOWA
NATIONAL WEATHER SERVICE DES MOINES IA
100 AM CST FRI NOV 28 2014

NOTE: "FAIR" INDICATES FEW OR NO CLOUDS BELOW 12,000 FEET WITH NO
SIGNIFICANT WEATHER AND/OR OBSTRUCTIONS TO VISIBILITY.

* - THESE STATIONS ARE NOT NWS STATIONS...THUS NOT UNDER NWS
QUALITY CONTROL.  THEY ALSO DO NOT REPORT WEATHER SUCH
AS PRECIPITATION OR FOG.

IAZ001>003-012>014-020>022-031>034-043>046-280800-
   NORTHWEST IOWA

CITY           SKY/WX    TMP DP  RH WIND       PRES   REMARKS
CARROLL *      CLOUDY    16  10  79 SE18      30.11F WCI  -1
CHEROKEE *     PTCLDY    16  12  86 SE9       30.05F WCI   4
DENISON *      MOCLDY    23  19  86 S22G31    30.02F WCI   8
LE MARS *      MOCLDY    19  16  86 S9        30.01F WCI   9
ORANGE CITY *  PTCLDY    19  16  86 SE8       29.99F WCI   9
SHELDON *      CLOUDY    16  10  79 SE16G22   30.00F WCI   0
SIOUX CITY     PTCLDY    23  16  74 SE12      30.02F WCI  12
SPENCER        PTCLDY    13   7  77 SE15      30.06F WCI  -3
STORM LAKE *   PTCLDY    12   9  85 SE17      30.04F WCI  -5
$$

IAZ055>058-069>071-079>083-090>094-280800-
   SOUTHWEST IOWA

CITY           SKY/WX    TMP DP  RH WIND       PRES   REMARKS
ATLANTIC *     CLOUDY    25  19  80 S13       30.12F WCI  13
AUDUBON *      CLOUDY    23  16  74 SE10      30.11F WCI  12
CLARINDA *     CLEAR     27  21  80 S10       30.16F WCI  17
COUNCIL BLFS * CLEAR     25  23  93 S16       30.06F WCI  12
CRESTON *      PTCLDY    23  19  86 SE14      30.16F WCI  11
HARLAN  *      CLOUDY    25  21  86 S14G22    30.13F WCI  13
LAMONI         PTCLDY    23  19  85 SE9       30.20F WCI  13
RED OAK *      CLEAR     25  21  86 SE9       30.13F WCI  15
SHENANDOAH *   CLEAR     27  23  86 SE14      30.13F WCI  15
$$

IAZ047>049-059>061-072>074-084-280800-
   CENTRAL IOWA

CITY           SKY/WX    TMP DP  RH WIND       PRES   REMARKS
AMES           CLOUDY    12   2  64 SE14      30.21F WCI  -3
ANKENY *       CLOUDY    12   5  73 SE8       30.22F WCI   1
CHARITON *     MOCLDY    18  12  79 SE12      30.22F WCI   5
DES MOINES     CLOUDY    15   7  70 SE12      30.22F WCI   2
GRINNELL*      CLOUDY    14   3  62 SE12G17   30.25F WCI   0
KNOXVILLE *    CLOUDY    14   5  67 SE12      30.22F WCI   0
MARSHALLTOWN   CLOUDY    13  -1  54 SE15      30.23F WCI  -3
PELLA *        PTCLDY    14   7  73 SE10      30.26F WCI   1
PERRY *        CLOUDY    16  10  79 SE14      30.17F WCI   1
$$

IAZ004>006-015-016-023>025-035-036-280800-
   NORTH CENTRAL IOWA

CITY           SKY/WX    TMP DP  RH WIND       PRES   REMARKS
ALGONA *       CLOUDY    12   3  67 SE15G22   30.13F WCI  -4
CLARION *      CLOUDY    12   3  67 SE23G30   30.13F WCI  -7
ESTHERVILLE    CLOUDY    10   4  76 SE22      30.06F WCI -10
FORT DODGE *   MOCLDY    12   3  67 SE12      30.12F WCI  -2
MASON CITY     CLOUDY    11   4  73 SE20      30.18F WCI  -7
FOREST CITY *  CLOUDY    14   7  73 SE13      30.16F WCI   0
IOWA FALLS *   CLOUDY    12   3  67 SE12      30.20F WCI  -2
$$

IAZ007>011-017>019-026>030-037>042-050>054-066-280800-
   NORTHEAST IOWA

CITY           SKY/WX    TMP DP  RH WIND       PRES   REMARKS
CEDAR RAPIDS   CLOUDY    13   7  77 SE10      30.30F WCI   0
CHARLES CITY * CLOUDY    10   3  72 SE13      30.23F WCI  -5
CLINTON *      CLOUDY    12   7  79 S5        30.38F WCI   4
DECORAH *      FLURRIES  10   5  79 S8        30.26F WCI  -1
DUBUQUE        CLOUDY    13   5  70 S8        30.31F WCI   2
MONTICELLO *   LGT SNOW  14   7  73 SE9       30.32F WCI   2
OELWEIN *      CLOUDY    12   5  73 SE10      30.28F WCI  -1
WATERLOO       CLOUDY    13   5  70 SE8       30.27F WCI   2
$$

IAZ064-065-067-068-078-280800-
   EAST CENTRAL IOWA

CITY           SKY/WX    TMP DP  RH WIND       PRES   REMARKS
DAVENPORT      CLOUDY    14   6  70 SE7       30.35F WCI   4
IOWA CITY      CLOUDY    13   6  74 SE8       30.35F WCI   2
MT. PLEASANT * MOCLDY    14   5  67 SE5       30.34F WCI   6
MUSCATINE *    CLOUDY    14   7  73 E7        30.37F WCI   4
QUAD CITIES    CLOUDY    14   7  73 SE5       30.36F WCI   6
$$

IAZ062-063-075>077-085>089-095>099-280800-
   SOUTHEAST IOWA

CITY           SKY/WX    TMP DP  RH WIND       PRES   REMARKS
BURLINGTON     MOCLDY    15   7  70 E6        30.35F WCI   6
FAIRFIELD *    CLOUDY    12   5  73 SE7       30.31F WCI   2
FORT MADISON * PTCLDY    18  10  73 SE5       30.34F WCI  11
KEOKUK *       PTCLDY    18   9  68 SE6       30.34F WCI   9
OSKALOOSA *      N/A     14   7  73 SE10      30.28F WCI   1
CENTERVILLE *  CLEAR     18  14  86 SE8       30.26F WCI   7
OTTUMWA        PTCLDY    15   6  67 SE9       30.28F WCI   3
WASHINGTON *   MOCLDY    14   9  79 SE7       30.33F WCI   4
$$

ABBREVIATIONS USED IN REMARKS
   TC - TEMPERATURES IN CELSIUS
  WCI - WIND CHILL INDEX
   HX - HEAT INDEX
  VSB - VISIBILITY
$$



USA.gov is the U.S. government's official web portal to all federal, state and local government web resources and services.